Terminal Aerodrome Forecast
Issued by NWS Grand Forks, ND

Home | Current Version | Previous Version | Graphics & Text | Print | Product List | Glossary On
Versions: 1 2 3 4 5 6 7 8 9 10 11 12 13 14 15 16 17
000
FTUS43 KFGF 150400 AAA
TAFGFK
TAF AMD
KGFK 150425Z 1504/1524 34012KT 4SM -FZDZ BR OVC004
      TEMPO 1504/1506 -FZRA
     FM151200 34020KT 2SM BR OVC005
     FM152000 35024G30KT 3/4SM BR OVC015=

USA.gov is the U.S. government's official web portal to all federal, state and local government web resources and services.